Find Starlink 2654

NORAD ID: 48454 Int'l Des: 2021-040 Owner: SPXS Country: US Constellation: starlink operational
LEOCIRCULAR

現在のビュー

3D地球を読み込み中...

About Starlink 2654

Starlink 2654 (NORAD 48454) is a starlink constellation satellite (v1.0) launched May 9, 2021 by SPXS of US. It operates in LEO, CIRCULAR orbit with a mass of 260.00 kg.

次回通過

Passes for default location (London). Set your location on the main map for personalized predictions.

高度履歴

Loading altitude history...

軌道要素

1 48454U 21040AC 26263.93860231 .00000726 00000-0 35150-4 0 9996
2 48454 53.1615 349.4345 0001046 82.0411 278.0709 15.31710177296606
Epoch: Sep 20, 2026 • Age: 6 hours

現在のステータス

高度 471.6 km
遠地点 / 近地点 N/A
速度 7.63 km/s
衛星直下点 -0.41°S, 83.99°W
打ち上げ日 May 9, 2021
運用期間 5.3 years
タイプ internet

技術仕様

分類 Payload
質量 260.00 kg
乾燥質量 248.00 kg
長さ 0.20 m
スパン 9.00 m
形状 ? Box + pan
製造者 SPXS
バスタイプ Starlink
フェーズステータス In Orbit
所有者/国 SPXS/US

Most Searched